Погода в Олекминске

Погода в Олекминске : погода сейчас, прогноз погоды и архив. Всё, что Вы хотите узнать о погоде в Олекминске!

Хотите узнать прогноз погоды в Олекминске? Тогда Вам сюда: Погода в Олекминске

Поиск расширенной информации на нашем сайте:

Другие новости

Новости СМИ2

Главная страница сайта

Новости сайта

03.07.2017

Напоминаем, что на нашем специализированном сайте Метеоцентр.Азия вы можете получить высокодетализированные автоматические прогнозы погоды по пунктам России, СНГ и мира в авиационном формате (включающие направление и скорость ветра, видимость, явления погоды, количество и форму облачности, нижнюю и верхнюю границу облачности).

Рекомендуем: ремонт iphone 3gs

Погода в Олекминске - сегодня

Время (UTC), дата Ветер
(°,м/с) 
Видим.   Явления Облачность Т
(°С)
Тd
(°С)
f(%) Тe
(°С)
Pmin
(гПа)
dP
(гПа)
Po
(мм)
O2
(г/м3)
Тmin Tmax R s Состояние
почвы
18 17.09.17 тихо ()   20000 м    10/0 верхняя 
[Ci fib]
-1.6 -1.6 100 -2  1012.1  0.4  737  299           
21 17.09.17 050 (СВ) 0500 м  туман  ?/?  
-1.8 -1.7 100 -1  1012.8  0.7  738  299           
03 18.09.17 060 (СВ) 20000 м    10/3 300 м средняя, верхняя 
[St|Ac trans|Ci fib]
+5.5 +0.9 72 +5  1013.6  0.7  739  292           
06 18.09.17 050 (СВ) 20000 м    10/5 600 м кучево-дожд., средняя 
[Cb cap|Ac trans]
+7.8 -1.1 53 +8  1013.2  -0.2  739  290           
09 18.09.17 нст () 4000 м  слаб. ливневой дождь  10/6 300 м кучево-дожд., средняя 
[Cb cap|Ac trans]
+4.5 +2.3 86 +5  1015.1  1.5  740  293           
15 18.09.17 260 (З) 4000 м  слаб. ливневой дождь  10/8 300 м кучево-дожд., средняя 
[Cb cap|Ac trans]
+1.8 +1.5 98 +3  1016.5  -0.2  741  296           
18 18.09.17 240 (ЮЗ) 10 км  в посл. час ливневой дождь  10/8 300 м кучево-дожд., средняя 
[Cb cap|Ac trans]
+1.5 +1.5 100 +2  1016.5  741  297           
21 18.09.17 тихо ()   20000 м    10/8 300 м кучево-дожд., средняя 
[Cb cap|Ac trans]
-0.3 -0.3 100 -0  1015.9  -0.7  740  299           
00 19.09.17 220 (ЮЗ) 0500 м  туман  ?/?  
+1.6 +1.6 100 +1  1018.4  -0.3  740  296  -0.5      влажная 
03 19.09.17 250 (З) 4000 м  {туман}  10/8 120 м средняя 
[St|Ac trans]
+2.1 +1.5 96 +1  1014.7  -0.6  740  296           
06 19.09.17 240 (ЮЗ) 20000 м  {туман}  10/6 450 м средняя, верхняя 
[St|Ac trans|Ci fib]
+5.1 +0.7 73 +4  1013.6  -0.9  739  292           
09 19.09.17 270 (З) 20000 м    10/6 600 м кучево-дожд., средняя, верхняя 
[Cb cap|Ac trans|Ci fib]
+6.2 +0.6 67 +6  1012.6  -0.8  739  291           
12 19.09.17 020 (С) 20000 м    10/5 600 м кучево-дожд., средняя, верхняя 
[Cb cap|Ac trans|Ci fib]
+2.7 +1.1 89 +2  1013.3  0.3  739  295    +7       
15 19.09.17 тихо ()   20000 м    10/5 600 м кучево-дожд., средняя 
[Cb cap|Ac trans]
+0.7 +0.4 98 +1  1013.3  -0.3  739  297           
18 19.09.17 тихо ()   20000 м    10/5 600 м средняя 
[Sc|Ac trans]
-0.2 -0.2 100 -0  1013.1  -0.2  738  298           
21 19.09.17 040 (СВ) 4000 м  дымка  10/3 100 м средняя, верхняя 
[St|Ac trans|Ci fib]
-0.6 -0.6 100 1012.8  -0.3  738  298           
00 20.09.17 тихо ()   2000 м  дымка  10/8 100 м средняя 
[St|Ac trans]
+1 +1 100 +1  1013.1  0.3  738  296  -0.6        влажная 
03 20.09.17 тихо ()   20000 м    10/8 210 м средняя 
[St|Ac trans]
+3.4 +2.1 91 +3  1012.6  738  294           
06 20.09.17 тихо ()   20000 м    10/8 300 м средняя 
[Sc|Ac trans]
+4.9 +2.2 83 +5  1011.9  -0.7  738  292           
09 20.09.17 нст () 20000 м    10/5 600 м средняя 
[Cu hum|Ac trans]
+5.1 +1 75 +6  1011.9  738  292           
12 20.09.17 тихо ()   20000 м    10/4 600 м средняя 
[Sc|Ac trans]
+2 +0.4 89 +2  1013.1  739  295    +5.5       
15 20.09.17 тихо ()   20000 м    10/3 1000 м средняя, верхняя 
[Sc|Ac trans|Ci fib]
-0.5 -1.4 94 -1  1013.4  739  298           
18 20.09.17 тихо ()   20000 м    4/0 верхняя 
[Ci fib]
-3.4 -3.4 100 -3  1013.5  -0.3  738  302           
21 20.09.17 060 (СВ) 2000 м  дымка  8/8 120 м 
[St]
-4.8 -4.8 100 -4  1013.5  -0.2  738  303           
00 21.09.17 260 (З) 0500 м  туман  ?/?  
-2.2 -2.2 100 -2  1013.4  0.3  738  300  -5.8        замёрзшая 
Время (UTC), дата Ветер
(°,м/с) 
Видим.   Явления Облачность Т
(°С)
Тd
(°С)
f(%) Тe
(°С)
Pmin
(гПа)
dP
(гПа)
Po
(мм)
O2
(г/м3)
Тmin Tmax R s Состояние
почвы

Для получения пояснительной информации подведите курсор к названию столбца.

ПОГОДА в Олекминске - архив

Всё, что Вы хотите узнать о погоде в Олекминске - удобно и подробно!

Выберите нужную дату (начиная с 1 января 2015* года) и нажмите кнопку "Найти".
Будут отображены архивные сводки погоды по пункту Олекминск, начиная с указанной даты.


Отображать данные в формате CSV (для использования в таблицах Excel)


Внимание! Наш архив погоды предназначен исключительно для личного некоммерческого использования в познавательных целях. Если Вам необходимы официальные справки о состоянии погоды (для производственных, юридических, коммерческих и т.п. целей), обращайтесь в органы Росгидромета.

*Примечание: данная дата относится к архиву по метеостанциям СССР (Россия, СНГ, Балтия).
Архив по метеостанциям Зарубежной Европы и Азии (кроме Китая) хранится 10 дней, по другим регионам земного шара (Китай, Африка, Америка, Австралия, Океания) - 1 день.

Олекминск - район местоположения метеостанции


Название, широта, долгота, высота метеостанции:
Олекминск 60.4°ш. 120.4°д. 226 м над ур. моря [Российская Федерация]

Дополнительная информация

В oтличие oт бoльшинства пoгoдных сайтoв мы публикуем пoдрoбную метеoинфoрмацию в детальнoм прoфессиoнальнoм фoрмате.

Характеристики температуры и влажнoсти вoздуха измеряются на высoте 2 м в тени вдали oт зданий и деревьев.
Скoрoсть ветра измеряется на высoте 10 м (на урoвне рoста челoвека скoрoсть ветра ниже в 1.5-2 раза). Если метеoстанция нахoдится в гoрoде или в лесу, тo скoрoсть ветра занижена на 2-4 м/с пo сравнению с oткрытым местoм. Скoрoсть ветра над акватoриями крупных рек и oзёр, а также на вершинах хoлмoв на 2-5 м/с выше, чем в oбычных услoвиях.
Атмoсфернoе давление в разных тoчках местнoсти мoжет значительнo oтличаться oт давления на метеoстанции, в зависимoсти oт услoвий рельефа (при пoдъёме на 10 м давление пoнижается примернo на 1 мм рт.ст.).